Weather History for KLWM - September, 2012

Change the Weather History Date:

Monday, September 24, 2012

  Actual Average Record
Temperature  
Mean Temperature 55 °F -  
Max Temperature 68 °F 68 °F 88 °F (1959)
Min Temperature 44 °F 47 °F 34 °F (1953)
Degree Days  
Heating Degree Days 10    
Growing Degree Days 5 (Base 50)    
Moisture  
Dew Point 40 °F    
Average Humidity 61    
Maximum Humidity 86    
Minimum Humidity 33    
Precipitation  
Precipitation 0.00 in - - ()
Sea Level Pressure  
Sea Level Pressure 30.11 in    
Wind  
Wind Speed 4 mph (WSW)    
Max Wind Speed 13 mph    
Max Gust Speed 20 mph    
Visibility 10 miles    
Events      
Averages and records for this station are not official NWS values.
T = Trace of Precipitation, MM = Missing Value Source: NWS Daily Summary

Daily Weather History Graph

Daily Weather History Graph

Search for Another Location

Airport or City:

Trip Planner

Search our weather history database for the weather conditions in past years. The results will help you decide how hot, cold, wet, or windy it might be!

Date:

Astronomy

Sep. 24, 2012 Rise Set
Actual Time 6:34 AM EDT 6:37 PM EDT
Civil Twilight 6:06 AM EDT 7:05 PM EDT
Nautical Twilight 5:33 AM EDT 7:38 PM EDT
Astronomical Twilight 4:59 AM EDT 8:11 PM EDT
Moon 3:27 PM EDT (9/24) 12:40 AM EDT (9/24)
Length of Visible Light 12h 59m
Length of Day
12h 02m
Waxing Gibbous, 70% of the Moon is Illuminated
Sep 24
Waxing Gibbous
Sep 29
Full
Oct 8
Last Quarter
Oct 15
New
Oct 21
First Quarter

Hourly Weather History & Observations

Time (EDT) Temp. Windchill Dew Point Humidity Pressure Visibility Wind Dir Wind Speed Gust Speed Precip Events Conditions
12:54 AM 50.0 °F - 43.0 °F 77% 30.11 in 10.0 mi SSW 3.5 mph - N/A   Clear
1:54 AM 46.9 °F - 43.0 °F 86% 30.11 in 10.0 mi Calm Calm - N/A   Clear
2:54 AM 46.9 °F - 42.1 °F 83% 30.11 in 10.0 mi Calm Calm - N/A   Clear
3:54 AM 45.0 °F 43.5 °F 41.0 °F 86% 30.10 in 10.0 mi SSW 3.5 mph - N/A   Clear
4:54 AM 46.9 °F - 41.0 °F 80% 30.12 in 10.0 mi SW 4.6 mph - N/A   Clear
5:54 AM 44.1 °F - 39.9 °F 85% 30.12 in 10.0 mi Calm Calm - N/A   Clear
6:54 AM 44.1 °F - 39.0 °F 82% 30.13 in 10.0 mi Calm Calm - N/A   Clear
7:54 AM 48.9 °F - 43.0 °F 80% 30.14 in 10.0 mi Calm Calm - N/A   Partly Cloudy
8:54 AM 54.0 °F - 43.0 °F 66% 30.14 in 10.0 mi West 4.6 mph - N/A   Scattered Clouds
9:54 AM 59.0 °F - 44.1 °F 58% 30.14 in 10.0 mi NNW 5.8 mph - N/A   Partly Cloudy
10:54 AM 62.1 °F - 39.9 °F 44% 30.13 in 10.0 mi WSW 5.8 mph - N/A   Clear
11:54 AM 64.0 °F - 37.0 °F 37% 30.12 in 10.0 mi WSW 8.1 mph 16.1 mph N/A   Clear
12:54 PM 64.9 °F - 39.9 °F 40% 30.11 in 10.0 mi West 10.4 mph - N/A   Clear
1:54 PM 66.9 °F - 37.0 °F 33% 30.08 in 10.0 mi WSW 9.2 mph 18.4 mph N/A   Scattered Clouds
2:54 PM 64.9 °F - 36.0 °F 34% 30.07 in 10.0 mi West 8.1 mph 19.6 mph N/A   Partly Cloudy
3:54 PM 66.9 °F - 37.0 °F 33% 30.06 in 10.0 mi WSW 12.7 mph 18.4 mph N/A   Scattered Clouds
4:54 PM 64.9 °F - 37.9 °F 37% 30.06 in 10.0 mi WSW 11.5 mph - N/A   Clear
5:54 PM 63.0 °F - 37.0 °F 38% 30.07 in 10.0 mi WSW 10.4 mph - N/A   Clear
6:54 PM 59.0 °F - 39.0 °F 48% 30.09 in 10.0 mi West 3.5 mph - N/A   Clear
7:54 PM 54.0 °F - 39.9 °F 59% 30.10 in 10.0 mi Calm Calm - N/A   Clear
8:54 PM 52.0 °F - 41.0 °F 66% 30.11 in 10.0 mi Calm Calm - N/A   Clear
9:54 PM 50.0 °F - 41.0 °F 71% 30.11 in 10.0 mi SSW 4.6 mph - N/A   Clear
10:54 PM 50.0 °F - 42.1 °F 74% 30.12 in 10.0 mi Calm Calm - N/A   Clear
11:54 PM 48.0 °F - 41.0 °F 77% 30.13 in 10.0 mi South 3.5 mph - N/A   Clear